map of DVO home
DVO - Airport
Location
City:  Davao City, Philippines
Name:Francisco Bangoy International Airport
ICAO:RPMD
IATA:DVO

Details
Type:Airport (Aerodrome, Airfield)
Use:Public/Civil, International (customs port of entry)
Latitude:707'32"N (7.125522)
Longitude:12538'45"E (125.645778)
Datum:WGS 1984
Elevation:96 ft (29 m)
Variation:0.65W (WMM2015 magnetic declination)
-0.11 annual change
Runways:1
Longest:9842 × 148 ft (3000 × 45 m), paved

Time
Time Zone:UTC+8
Local Time:

Weather
METAR:RPMD 072000Z 36002KT 9999 SCT016 BKN090 BKN290 25/24 Q1007 RMK A2974
TAF:RPMD 071100Z 0712/0812 06005KT 9999 FEW016 BKN290
TEMPO 0712/0718 18008KT 8000 -SHRA SCT015CB BKN090 BKN290

Related Locations
Nearby:
Farthest:NPR: 12379 mi / 19921 km
Novo Progresso [Aeropuerto Novo Progresso], PA, BR

Find:

   beyond  
but within

Other Information
Maps:
NOTAMs:
Links:
Sources:

  
flag of Philippines   

Sectional Chart

Flight Planning
at skyvector.com

Satellite Image

Google Maps Satellite view

 

Copyright © 2004-2016 Karl L. Swartz. All rights reserved.
The Great Circle Mapper name and logo are trademarks of the Great Circle Mapper.
All other trademarks mentioned herein belong to their respective owners.
Please see credits for attibutions and further copyright information.

  Follow gcmap on Facebook Follow gcmap on Twitter Follow gcmap on Google+ GCmap on LinkedIn

hCard Microformat

Geo Microformat